GW2924 Weather Reports


time (UTC)temp
C
wind
direction
speed
KPH
gust
KPH
rain 1hr
cm
rain 24hr
cm
rain mn
cm
humidity
%
barometer
mb
20260906150556 21 175 3.2 9.7 0.00 0.03 0.03 91 1020.4
20260906145553 20 144 4.8 9.7 0.00 0.03 0.03 91 1020.4
20260906145055 20 169 6.4 9.7 0.00 0.03 0.03 91 1020.4
20260906144608 20 141 4.8 9.7 0.00 0.03 0.03 91 1020.4
20260906144052 20 158 4.8 9.7 0.00 0.03 0.03 92 1020.4
20260906143556 20 128 1.6 8.0 0.00 0.03 0.03 92 1020.4
20260906143102 20 141 4.8 11.3 0.00 0.03 0.03 92 1020.3
20260906142552 20 143 4.8 11.3 0.00 0.03 0.03 92 1020.4
20260906142059 20 157 4.8 11.3 0.00 0.03 0.03 92 1020.4
20260906141613 20 174 4.8 11.3 0.00 0.03 0.03 92 1020.3
20260906141053 20 256 4.8 11.3 0.00 0.03 0.03 93 1020.3
20260906140555 20 148 4.8 14.5 0.00 0.03 0.03 93 1020.3
20260906140107 20 141 8.0 14.5 0.00 0.03 0.03 93 1020.3
20260906135552 20 199 8.0 11.3 0.00 0.03 0.03 94 1020.3
20260906135053 20 161 4.8 9.7 0.00 0.03 0.03 94 1020.4
20260906134606 20 139 4.8 11.3 0.00 0.03 0.03 94 1020.1
20260906134056 20 188 4.8 11.3 0.00 0.03 0.03 95 1020.1
20260906133554 19 191 6.4 12.9 0.00 0.03 0.03 95 1020.1
20260906133107 19 119 8.0 12.9 0.00 0.03 0.03 95 1020.0
20260906132552 19 192 6.4 16.1 0.00 0.03 0.03 95 1020.0
20260906132054 19 134 8.0 16.1 0.00 0.03 0.03 96 1019.9
20260906131607 19 180 9.7 16.1 0.00 0.03 0.03 96 1019.9
20260906131052 19 136 3.2 12.9 0.00 0.03 0.03 96 1019.9
20260906130553 19 139 6.4 12.9 0.00 0.03 0.03 96 1019.8
20260906130111 19 200 6.4 12.9 0.03 0.03 0.03 96 1019.7
20260906125555 19 167 6.4 12.9 0.03 0.03 0.03 96 1019.6
20260906125055 19 113 6.4 11.3 0.03 0.03 0.03 97 1019.6
20260906124601 19 146 4.8 11.3 0.03 0.03 0.03 97 1019.8
20260906124055 19 182 4.8 16.1 0.03 0.03 0.03 97 1019.7
20260906123558 19 174 6.4 16.1 0.03 0.03 0.03 97 1019.8
20260906123107 19 162 3.2 11.3 0.03 0.03 0.03 97 1019.7
20260906122557 19 143 4.8 11.3 0.03 0.03 0.03 97 1019.6
20260906122059 19 163 6.4 12.9 0.03 0.03 0.03 97 1019.4
20260906121610 19 186 6.4 12.9 0.03 0.03 0.03 97 1019.4
20260906121056 18 148 6.4 12.9 0.03 0.03 0.03 98 1019.5
20260906120556 18 163 4.8 12.9 0.03 0.03 0.03 98 1019.5
20260906120107 18 138 6.4 11.3 0.00 0.00 0.00 98 1019.4
20260906115557 18 142 3.2 8.0 0.00 0.00 0.00 98 1019.3
20260906115056 18 176 4.8 8.0 0.00 0.00 0.00 98 1019.3
20260906114611 18 144 1.6 4.8 0.00 0.00 0.00 98 1019.3
20260906114058 17 0 0.0 4.8 0.00 0.00 0.00 98 1019.3
20260906113557 17 148 0.0 3.2 0.00 0.00 0.00 98 1019.3
20260906113059 17 128 0.0 1.6 0.00 0.00 0.00 97 1019.3
20260906112556 16 0 0.0 1.6 0.00 0.00 0.00 97 1019.4
20260906112057 16 129 0.0 1.6 0.00 0.00 0.00 97 1019.3
20260906111605 16 0 0.0 0.0 0.00 0.00 0.00 97 1019.3
20260906111057 16 0 0.0 0.0 0.00 0.00 0.00 96 1019.4
20260906110557 16 0 0.0 0.0 0.00 0.00 0.00 95 1019.3
20260906110104 16 0 0.0 0.0 0.00 0.00 0.00 96 1019.1
20260906105557 16 0 0.0 0.0 0.00 0.00 0.00 96 1019.2
20260906105056 17 0 0.0 0.0 0.00 0.00 0.00 96 1019.1
20260906104600 17 0 0.0 0.0 0.00 0.00 0.00 96 1019.1
20260906104057 17 0 0.0 0.0 0.00 0.00 0.00 96 1018.9
20260906103600 17 0 0.0 0.0 0.00 0.00 0.00 97 1018.9
20260906103105 17 0 0.0 0.0 0.00 0.00 0.00 97 1019.0
20260906102555 17 0 0.0 0.0 0.00 0.00 0.00 95 1018.9
20260906102057 17 0 0.0 1.6 0.00 0.00 0.00 96 1018.8
20260906101603 17 0 0.0 1.6 0.00 0.00 0.00 96 1018.7
20260906101056 17 0 0.0 1.6 0.00 0.00 0.00 96 1018.8
20260906100553 18 129 0.0 1.6 0.00 0.00 0.00 96 1018.7
20260906100104 18 0 0.0 0.0 0.00 0.00 0.00 96 1018.8
20260906095556 18 0 0.0 0.0 0.00 0.00 0.00 96 1018.7
20260906095054 18 0 0.0 1.6 0.00 0.00 0.00 96 1018.5
20260906094605 18 0 0.0 1.6 0.00 0.00 0.00 95 1018.4
20260906094054 18 0 0.0 1.6 0.00 0.00 0.00 96 1018.4
20260906093554 18 129 0.0 1.6 0.00 0.00 0.00 96 1018.1
20260906093106 18 0 0.0 1.6 0.00 0.00 0.00 96 1018.2
20260906092556 18 0 0.0 1.6 0.00 0.00 0.00 95 1018.2
20260906092053 18 0 0.0 1.6 0.00 0.00 0.00 95 1018.1
20260906091603 18 0 0.0 1.6 0.00 0.00 0.00 95 1018.1
20260906091054 18 101 0.0 1.6 0.00 0.00 0.00 95 1018.1
20260906090553 18 0 0.0 1.6 0.00 0.00 0.00 95 1018.1
20260906090108 18 0 0.0 3.2 0.00 0.00 0.00 95 1018.0
20260906085556 18 0 0.0 3.2 0.00 0.00 0.00 95 1017.9
20260906085054 18 77 0.0 3.2 0.00 0.00 0.00 95 1017.9
20260906084606 19 68 1.6 3.2 0.00 0.00 0.00 95 1017.9
20260906084054 19 0 0.0 3.2 0.00 0.00 0.00 95 1017.9
20260906083555 19 74 1.6 3.2 0.00 0.00 0.00 95 1017.9
20260906083102 19 79 1.6 3.2 0.00 0.00 0.00 95 1017.8
20260906082555 19 99 0.0 4.8 0.00 0.00 0.00 95 1017.9
20260906082053 19 0 0.0 4.8 0.00 0.00 0.00 95 1017.9
20260906081619 19 92 0.0 3.2 0.00 0.00 0.00 95 1017.9
20260906081054 19 79 0.0 8.0 0.00 0.00 0.00 95 1017.9
20260906080553 20 104 1.6 8.0 0.00 0.00 0.00 95 1018.1
20260906080107 20 57 1.6 4.8 0.00 0.00 0.00 95 1018.1
20260906075554 20 67 1.6 4.8 0.00 0.00 0.00 95 1018.1
20260906075057 20 77 0.0 3.2 0.00 0.00 0.00 95 1018.1
20260906074612 20 0 0.0 3.2 0.00 0.00 0.00 95 1018.3
20260906074056 20 0 0.0 3.2 0.00 0.00 0.00 95 1018.4
20260906073554 20 0 0.0 4.8 0.00 0.00 0.00 95 1018.4
20260906073102 20 0 0.0 4.8 0.00 0.00 0.00 95 1018.4
20260906072554 19 136 0.0 3.2 0.00 0.00 0.00 95 1018.2
20260906072056 19 148 0.0 3.2 0.00 0.00 0.00 95 1018.2
20260906071605 19 153 1.6 4.8 0.00 0.00 0.00 95 1018.4
20260906071053 19 122 0.0 4.8 0.00 0.00 0.00 95 1018.3
20260906070554 19 138 1.6 4.8 0.00 0.00 0.00 95 1018.3
20260906070109 19 119 0.0 3.2 0.00 0.00 0.00 95 1018.3
20260906065557 19 137 0.0 3.2 0.00 0.00 0.00 95 1018.4
20260906065054 19 115 0.0 4.8 0.00 0.00 0.00 95 1018.4
20260906064606 19 136 0.0 4.8 0.00 0.00 0.00 96 1018.5
20260906064053 19 150 0.0 4.8 0.00 0.00 0.00 96 1018.5
20260906063553 19 131 1.6 4.8 0.00 0.00 0.00 96 1018.5
20260906063106 19 141 0.0 1.6 0.00 0.00 0.00 96 1018.5
20260906062553 19 131 0.0 3.2 0.00 0.00 0.00 95 1018.5
20260906062057 19 119 0.0 3.2 0.00 0.00 0.00 96 1018.5
20260906061610 19 0 0.0 1.6 0.00 0.00 0.00 96 1018.6
20260906061056 19 0 0.0 1.6 0.00 0.00 0.00 96 1018.7
20260906060553 19 0 0.0 1.6 0.00 0.00 0.00 96 1018.8
20260906060107 19 0 0.0 1.6 0.00 0.00 0.00 95 1018.8
20260906055556 19 137 0.0 1.6 0.00 0.00 0.00 96 1018.7
20260906055053 19 136 0.0 1.6 0.00 0.00 0.00 95 1018.8
20260906054558 19 131 0.0 1.6 0.00 0.00 0.00 95 1018.7
20260906054054 19 0 0.0 1.6 0.00 0.00 0.00 95 1018.8
20260906053555 19 131 0.0 1.6 0.00 0.00 0.00 95 1018.7
20260906053105 19 131 0.0 1.6 0.00 0.00 0.00 95 1018.8
20260906052556 19 0 0.0 0.0 0.00 0.00 0.00 96 1018.8
20260906052053 19 0 0.0 0.0 0.00 0.00 0.00 95 1018.8
20260906051606 19 0 0.0 0.0 0.00 0.00 0.00 95 1018.8
20260906051057 19 0 0.0 0.0 0.00 0.00 0.00 95 1018.9
20260906050556 20 0 0.0 0.0 0.00 0.00 0.00 95 1019.0
20260906050105 20 0 0.0 0.0 0.00 0.00 0.00 95 1019.1
20260906045600 20 0 0.0 0.0 0.00 0.00 0.00 95 1019.0
20260906045056 20 0 0.0 0.0 0.00 0.00 0.00 95 1018.9
20260906044605 20 0 0.0 0.0 0.00 0.00 0.00 95 1018.8
20260906044054 20 0 0.0 0.0 0.00 0.00 0.00 95 1018.8
20260906043553 20 0 0.0 0.0 0.00 0.00 0.00 95 1018.9
20260906043104 20 0 0.0 0.0 0.00 0.00 0.00 95 1019.0
20260906042553 20 0 0.0 0.0 0.00 0.00 0.00 96 1018.8
20260906042053 20 0 0.0 0.0 0.00 0.00 0.00 96 1018.8
20260906041604 20 0 0.0 0.0 0.00 0.00 0.00 95 1018.6
20260906041053 20 0 0.0 0.0 0.00 0.00 0.00 95 1018.7
20260906040554 20 0 0.0 0.0 0.00 0.00 0.00 95 1018.6
20260906035554 20 0 0.0 0.0 0.00 0.00 0.00 95 1018.5
20260906035054 20 0 0.0 0.0 0.00 0.00 0.00 95 1018.6
20260906034611 20 0 0.0 0.0 0.00 0.00 0.00 95 1018.8
20260906034054 20 0 0.0 0.0 0.00 0.00 0.00 95 1018.7
20260906033554 20 0 0.0 0.0 0.00 0.00 0.00 95 1018.7
20260906033102 20 0 0.0 0.0 0.00 0.00 0.00 95 1018.8
20260906032553 20 0 0.0 0.0 0.00 0.00 0.00 95 1018.9
20260906032053 20 0 0.0 0.0 0.00 0.00 0.00 95 1018.9
20260906031605 20 0 0.0 0.0 0.00 0.00 0.00 95 1018.9
20260906031054 20 0 0.0 0.0 0.00 0.00 0.00 95 1018.8
20260906030554 20 0 0.0 0.0 0.00 0.00 0.00 95 1019.0
20260906030058 20 0 0.0 0.0 0.00 0.00 0.00 95 1018.9
20260906025554 20 0 0.0 0.0 0.00 0.00 0.00 95 1018.7
20260906025056 20 0 0.0 0.0 0.00 0.00 0.00 95 1018.6
20260906024608 20 0 0.0 0.0 0.00 0.00 0.00 95 1018.5
20260906024053 20 0 0.0 0.0 0.00 0.00 0.00 94 1018.6
20260906023554 19 0 0.0 0.0 0.00 0.00 0.00 94 1018.4
20260906023105 19 0 0.0 0.0 0.00 0.00 0.00 94 1018.4
20260906022553 19 0 0.0 0.0 0.00 0.00 0.00 93 1018.3
20260906022056 19 0 0.0 0.0 0.00 0.00 0.00 93 1018.1
20260906021607 20 0 0.0 0.0 0.00 0.00 0.00 93 1017.9
20260906021054 20 0 0.0 0.0 0.00 0.00 0.00 93 1017.9
20260906020554 20 0 0.0 0.0 0.00 0.00 0.00 93 1017.8
20260906020106 20 0 0.0 0.0 0.00 0.00 0.00 93 1017.8
20260906015553 20 0 0.0 0.0 0.00 0.00 0.00 93 1017.7
20260906015053 20 0 0.0 0.0 0.00 0.00 0.00 92 1017.6
20260906014607 20 0 0.0 0.0 0.00 0.00 0.00 92 1017.4
20260906014054 20 0 0.0 0.0 0.00 0.00 0.00 92 1017.3
20260906013555 21 0 0.0 0.0 0.00 0.00 0.00 91 1017.1
20260906013106 21 0 0.0 0.0 0.00 0.00 0.00 92 1017.1
20260906012555 21 0 0.0 0.0 0.00 0.00 0.00 91 1017.1
20260906012055 21 0 0.0 0.0 0.00 0.00 0.00 91 1017.1
20260906011606 21 0 0.0 0.0 0.00 0.00 0.00 90 1017.1
20260906011053 21 0 0.0 0.0 0.00 0.00 0.00 90 1017.2
20260906010553 21 0 0.0 0.0 0.00 0.00 0.00 90 1017.1
20260906010104 21 0 0.0 0.0 0.00 0.00 0.00 90 1017.1
20260906005553 21 0 0.0 0.0 0.00 0.00 0.00 89 1017.0
20260906005053 22 0 0.0 0.0 0.00 0.00 0.00 89 1016.8
20260906004601 22 0 0.0 0.0 0.00 0.00 0.00 89 1016.8
20260906004053 22 0 0.0 0.0 0.00 0.00 0.00 89 1016.8
20260906003553 22 0 0.0 0.0 0.00 0.00 0.00 88 1016.9
20260906003108 22 0 0.0 0.0 0.00 0.00 0.00 88 1017.0
20260906002552 22 0 0.0 0.0 0.00 0.00 0.00 88 1016.9
20260906002057 22 0 0.0 0.0 0.00 0.00 0.00 87 1017.0
20260906001610 22 0 0.0 1.6 0.00 0.00 0.00 87 1016.9
20260906001054 22 0 0.0 1.6 0.00 0.00 0.00 86 1017.0
20260906000554 23 0 0.0 3.2 0.00 0.00 0.00 85 1016.8
20260905235555 23 122 0.0 6.4 0.00 0.00 0.00 84 1017.0
20260905235054 23 123 1.6 9.7 0.00 0.00 0.00 84 1016.8
20260905234603 23 84 3.2 9.7 0.00 0.00 0.00 83 1016.8
20260905234053 23 114 3.2 9.7 0.00 0.00 0.00 82 1016.9
20260905233556 24 158 3.2 12.9 0.00 0.00 0.00 81 1017.0
20260905233105 24 64 3.2 12.9 0.00 0.00 0.00 81 1016.8
20260905232555 25 156 8.0 12.9 0.00 0.00 0.00 80 1016.8
20260905232056 25 85 6.4 16.1 0.00 0.00 0.00 80 1016.8
20260905231609 25 54 4.8 16.1 0.00 0.00 0.00 79 1016.6
20260905231053 25 120 4.8 12.9 0.00 0.00 0.00 79 1016.5
20260905230554 25 74 6.4 14.5 0.00 0.00 0.00 79 1016.5
20260905230108 25 139 4.8 14.5 0.00 0.00 0.00 80 1016.3
20260905225552 25 79 8.0 16.1 0.00 0.00 0.00 80 1016.3
20260905225053 25 50 6.4 16.1 0.00 0.00 0.00 81 1016.1
20260905224609 25 65 8.0 14.5 0.00 0.00 0.00 82 1016.0
20260905224052 25 60 9.7 17.7 0.00 0.00 0.00 82 1016.0
20260905223552 25 62 6.4 17.7 0.00 0.00 0.00 82 1015.9
20260905223103 25 161 9.7 17.7 0.00 0.00 0.00 82 1016.0
20260905222553 25 85 11.3 16.1 0.00 0.00 0.00 82 1015.9
20260905222055 25 84 9.7 16.1 0.00 0.00 0.00 82 1016.0
20260905221607 25 53 6.4 16.1 0.00 0.00 0.00 82 1016.0
20260905221057 25 86 6.4 17.7 0.00 0.00 0.00 82 1016.0
20260905220555 25 76 8.0 20.9 0.00 0.00 0.00 82 1015.8
20260905220110 25 51 12.9 22.5 0.00 0.00 0.00 81 1015.8
20260905215553 25 66 12.9 22.5 0.00 0.00 0.00 81 1015.7
20260905215054 25 56 9.7 17.7 0.00 0.00 0.00 81 1015.7
20260905214559 25 130 9.7 17.7 0.00 0.00 0.00 81 1015.9
20260905214053 25 62 8.0 16.1 0.00 0.00 0.00 81 1016.0
20260905213553 25 138 6.4 19.3 0.00 0.00 0.00 81 1015.9
20260905213104 25 68 11.3 22.5 0.00 0.00 0.00 81 1015.8
20260905212552 25 63 14.5 22.5 0.00 0.00 0.00 81 1015.7
20260905212056 25 70 12.9 19.3 0.00 0.00 0.00 81 1015.8
20260905211630 25 56 11.3 19.3 0.00 0.00 0.00 81 1016.0
20260905211052 25 80 9.7 17.7 0.00 0.00 0.00 81 1016.2
20260905210553 25 70 11.3 17.7 0.00 0.00 0.00 81 1016.3
20260905210104 25 71 9.7 14.5 0.00 0.00 0.00 81 1016.3
20260905205552 25 61 4.8 12.9 0.00 0.00 0.00 81 1016.4
20260905205054 25 58 6.4 14.5 0.00 0.00 0.00 81 1016.5
20260905204608 25 73 11.3 16.1 0.00 0.00 0.00 81 1016.4
20260905204056 25 51 9.7 19.3 0.00 0.00 0.00 81 1016.4
20260905203557 25 51 9.7 19.3 0.00 0.00 0.00 80 1016.6
20260905203119 25 72 9.7 20.9 0.00 0.00 0.00 80 1016.7
20260905202557 25 54 11.3 20.9 0.00 0.00 0.00 80 1016.7
20260905202057 25 51 9.7 16.1 0.00 0.00 0.00 79 1016.7
20260905201607 25 58 9.7 16.1 0.00 0.00 0.00 80 1016.8
20260905201057 25 105 9.7 16.1 0.00 0.00 0.00 80 1016.9
20260905200557 25 61 8.0 16.1 0.00 0.00 0.00 79 1017.1
20260905200118 25 31 8.0 16.1 0.00 0.00 0.00 79 1017.2
20260905195557 26 62 8.0 16.1 0.00 0.00 0.00 79 1017.1
20260905195057 26 65 8.0 16.1 0.00 0.00 0.00 79 1017.2
20260905194605 26 89 6.4 11.3 0.00 0.00 0.00 78 1017.4
20260905194057 26 73 3.2 8.0 0.00 0.00 0.00 77 1017.4
20260905193556 26 62 3.2 11.3 0.00 0.00 0.00 77 1017.5
20260905193105 26 85 6.4 11.3 0.00 0.00 0.00 77 1017.7
20260905192556 27 60 3.2 6.4 0.00 0.00 0.00 76 1017.7
20260905192057 27 150 1.6 6.4 0.00 0.00 0.00 77 1017.6
20260905191607 27 74 1.6 8.0 0.00 0.00 0.00 76 1017.7
20260905191057 27 127 3.2 8.0 0.00 0.00 0.00 77 1017.8
20260905190558 27 0 1.6 6.4 0.00 0.00 0.00 75 1017.9
20260905185557 27 44 1.6 6.4 0.00 0.00 0.00 73 1018.0
20260905185057 27 140 0.0 8.0 0.00 0.00 0.00 74 1017.9
20260905184613 27 120 3.2 8.0 0.00 0.00 0.00 77 1017.9
20260905184057 27 142 3.2 8.0 0.00 0.00 0.00 77 1017.9
20260905183557 26 156 0.0 6.4 0.00 0.00 0.00 78 1017.9
20260905183105 26 99 1.6 4.8 0.00 0.00 0.00 78 1017.9
20260905182557 26 46 3.2 4.8 0.00 0.00 0.00 78 1018.1
20260905182056 26 316 1.6 8.0 0.00 0.00 0.00 79 1018.0
20260905181612 26 69 1.6 8.0 0.00 0.00 0.00 79 1018.0
20260905181057 26 86 1.6 6.4 0.00 0.00 0.00 78 1018.2
20260905180556 26 121 1.6 6.4 0.00 0.00 0.00 78 1018.2
20260905180107 26 162 1.6 9.7 0.00 0.00 0.00 79 1018.1
20260905175557 26 150 3.2 9.7 0.00 0.00 0.00 80 1018.1
20260905175056 26 75 3.2 8.0 0.00 0.00 0.00 79 1018.1
20260905174602 25 46 3.2 8.0 0.00 0.00 0.00 80 1018.4
20260905174056 25 159 3.2 8.0 0.00 0.00 0.00 80 1018.7
20260905173557 25 181 1.6 6.4 0.00 0.00 0.00 80 1018.7
20260905173124 25 150 1.6 6.4 0.00 0.00 0.00 82 1018.8
20260905172556 25 266 0.0 4.8 0.00 0.00 0.00 82 1019.0
20260905172057 25 139 3.2 8.0 0.00 0.00 0.00 81 1019.1
20260905171601 25 68 1.6 9.7 0.00 0.00 0.00 82 1019.0
20260905171056 25 127 4.8 9.7 0.00 0.00 0.00 82 1018.9
20260905170557 25 146 3.2 9.7 0.00 0.00 0.00 82 1018.9
20260905170105 25 161 1.6 9.7 0.00 0.00 0.00 83 1018.9
20260905165556 24 101 3.2 9.7 0.00 0.00 0.00 84 1018.9
20260905165054 24 158 3.2 8.0 0.00 0.00 0.00 84 1018.9
20260905164606 24 139 3.2 8.0 0.00 0.00 0.00 85 1019.0
20260905164057 23 131 3.2 8.0 0.00 0.00 0.00 86 1018.9
20260905163553 23 75 1.6 6.4 0.00 0.00 0.00 86 1018.9
20260905163108 23 65 3.2 6.4 0.00 0.00 0.00 86 1018.9
20260905162557 23 68 3.2 6.4 0.00 0.00 0.00 86 1018.7
20260905162054 23 137 3.2 6.4 0.00 0.00 0.00 86 1018.7
20260905161604 23 62 3.2 6.4 0.00 0.00 0.00 86 1018.7
20260905161054 23 130 1.6 8.0 0.00 0.00 0.00 87 1018.6
20260905160558 23 123 3.2 8.0 0.00 0.00 0.00 88 1018.5
20260905160137 23 195 1.6 9.7 0.00 0.00 0.00 88 1018.5
20260905155554 23 109 3.2 11.3 0.00 0.00 0.00 89 1018.4
20260905155053 23 71 4.8 11.3 0.00 0.00 0.00 89 1018.5
20260905154604 23 71 6.4 12.9 0.00 0.00 0.00 89 1018.4
20260905154057 23 108 6.4 12.9 0.00 0.00 0.00 90 1018.4
20260905153556 22 100 4.8 12.9 0.00 0.00 0.00 90 1018.4
20260905153116 22 88 4.8 14.5 0.00 0.00 0.00 91 1018.4
20260905152556 22 104 8.0 14.5 0.00 0.00 0.00 91 1018.3
20260905152054 22 79 6.4 12.9 0.00 0.00 0.00 92 1018.3
20260905151604 22 56 4.8 12.9 0.00 0.00 0.00 93 1018.2
20260905151053 22 98 3.2 12.9 0.00 0.00 0.00 94 1018.3